This is the latest recevied weather packets stored in our database for station/object N9CQL. If no packets are shown the sender has not sent any weather packets the latest 10 day(s).
| Time | Temp. | Humidity | Pressure | Rain* | Wind** | Luminosity | Snow |
|---|---|---|---|---|---|---|---|
| 1777972313 | 13.89° C | 50% | 1004.3 hPa | 0 mm | - | 0 W/m² | - |
| 1777972010 | 13.89° C | 49% | 1004.5 hPa | 0 mm | - | 0 W/m² | - |
| 1777971708 | 14.44° C | 48% | 1004.2 hPa | 0 mm | - | 0 W/m² | - |
| 1777971405 | 14.44° C | 48% | 1004.2 hPa | 0 mm | - | 0 W/m² | - |
| 1777971103 | 14.44° C | 48% | 1003.9 hPa | 0 mm | - | 0 W/m² | - |
| 1777970801 | 14.44° C | 47% | 1003.9 hPa | 0 mm | - | 0 W/m² | - |
| 1777970499 | 14.44° C | 47% | 1003.7 hPa | 0 mm | - | 0 W/m² | - |
| 1777970196 | 14.44° C | 46% | 1003.5 hPa | 0 mm | - | 0 W/m² | - |
| 1777969892 | 14.44° C | 49% | 1003.2 hPa | 0 mm | - | 0 W/m² | - |
| 1777969588 | 14.44° C | 48% | 1002.6 hPa | 0 mm | - | 0 W/m² | - |
| 1777969286 | 14.44° C | 47% | 1002.7 hPa | 0 mm | - | 0 W/m² | - |
| 1777968981 | 14.44° C | 48% | 1002.8 hPa | 0 mm | - | 0 W/m² | - |
| 1777968680 | 14.44° C | 49% | 1002.5 hPa | 0 mm | - | 0 W/m² | - |
| 1777968375 | 14.44° C | 48% | 1002.3 hPa | 0 mm | - | 0 W/m² | - |
| 1777968072 | 14.44° C | 50% | 1002.5 hPa | 0 mm | - | 0 W/m² | - |
| 1777967768 | 15° C | 48% | 1002.2 hPa | 0 mm | - | 0 W/m² | - |
| 1777967465 | 15° C | 47% | 1002.2 hPa | 0 mm | - | 0 W/m² | - |
| 1777967162 | 15° C | 47% | 1002.2 hPa | 0 mm | - | 0 W/m² | - |
| 1777966859 | 15° C | 48% | 1002.2 hPa | 0 mm | - | 0 W/m² | - |
| 1777966556 | 15° C | 47% | 1002.1 hPa | 0 mm | - | 0 W/m² | - |
| 1777966255 | 15° C | 48% | 1001.9 hPa | 0 mm | - | 0 W/m² | - |
| 1777965950 | 15° C | 47% | 1001.8 hPa | 0 mm | - | 0 W/m² | - |
| 1777965647 | 15.56° C | 44% | 1001.5 hPa | 0 mm | - | 0 W/m² | - |
| 1777965342 | 15.56° C | 45% | 1001.8 hPa | 0 mm | - | 0 W/m² | - |
| 1777965041 | 15.56° C | 46% | 1001.7 hPa | 0 mm | - | 0 W/m² | - |
* Rain latest hour (hover to see other rain measurements)
** Current wind speed in m/s (hover to see current wind gust speed)